Weather History for Madison, SD

Change the Weather History Date:

Monday, August 19, 2013

  Actual Average Record
Temperature  
Mean Temperature 72 °F -  
Max Temperature 82 °F 81 °F 82 °F (2013)
Min Temperature 62 °F 57 °F 51 °F (2012)
Cooling Degree Days 7    
Growing Degree Days 22 (Base 50)    
Moisture  
Dew Point 69 °F    
Average Humidity 92    
Maximum Humidity 100    
Minimum Humidity 74    
Precipitation  
Precipitation 0.00 in - - ()
Sea Level Pressure  
Sea Level Pressure 29.94 in    
Wind  
Wind Speed 9 mph (South)    
Max Wind Speed 15 mph    
Max Gust Speed 21 mph    
Visibility 10 miles    
Events Rain    
Averages and records for this station are not official NWS values.
T = Trace of Precipitation, MM = Missing Value Source: NWS Daily Summary

Daily Weather History Graph

Daily Weather History Graph

Search for Another Location

Airport:

Trip Planner

Search our weather history database for the weather conditions in past years. The results will help you decide how hot, cold, wet, or windy it might be!

Date:

Astronomy

Aug. 19, 2013 Rise Set
Actual Time 6:37 AM CDT 8:25 PM CDT
Civil Twilight 6:06 AM CDT 8:56 PM CDT
Nautical Twilight 5:28 AM CDT 9:34 PM CDT
Astronomical Twilight 4:47 AM CDT 10:14 PM CDT
Moon 7:17 PM CDT (8/19) 4:56 AM CDT (8/19)
Length of Visible Light 14h 50m
Length of Day
13h 48m
Waxing Gibbous, 97% of the Moon is Illuminated
Aug 19
Waxing Gibbous
Aug 20
Full
Aug 28
Last Quarter
Sep 5
New
Sep 12
First Quarter

Hourly Weather History & Observations

Time (CDT) Temp. Heat Index Dew Point Humidity Pressure Visibility Wind Dir Wind Speed Gust Speed Precip Events Conditions
12:10 AM 66.2 °F - 66.2 °F 100% 30.01 in 10.0 mi South 12.7 mph - N/A   Clear
12:30 AM 66.2 °F - 66.2 °F 100% 30.01 in 10.0 mi South 11.5 mph - N/A   Clear
12:50 AM 66.2 °F - 66.2 °F 100% 30.02 in 10.0 mi South 9.2 mph - N/A   Clear
1:10 AM 66.2 °F - 66.2 °F 100% 30.02 in 10.0 mi SSW 8.1 mph - N/A   Clear
1:30 AM 64.4 °F - 64.4 °F 100% 30.02 in 10.0 mi South 6.9 mph - N/A   Clear
1:50 AM 64.4 °F - 64.4 °F 100% 30.02 in 10.0 mi South 6.9 mph - N/A   Clear
2:10 AM 64.4 °F - 64.4 °F 100% 30.02 in 10.0 mi South 9.2 mph - N/A   Clear
2:30 AM 64.4 °F - 64.4 °F 100% 30.01 in 10.0 mi South 5.8 mph - N/A   Clear
2:50 AM 64.4 °F - 64.4 °F 100% 29.99 in 10.0 mi South 9.2 mph - N/A   Clear
3:10 AM 64.4 °F - 64.4 °F 100% 29.99 in 10.0 mi South 8.1 mph - N/A   Clear
3:30 AM 62.6 °F - 62.6 °F 100% 30.00 in 10.0 mi South 5.8 mph - N/A   Clear
3:50 AM 62.6 °F - 62.6 °F 100% 29.99 in 10.0 mi South 5.8 mph - N/A   Clear
4:10 AM 62.6 °F - 62.6 °F 100% 29.99 in 10.0 mi South 6.9 mph - N/A   Clear
4:30 AM 62.6 °F - 62.6 °F 100% 29.98 in 10.0 mi South 8.1 mph - N/A   Clear
4:50 AM 62.6 °F - 62.6 °F 100% 29.98 in 10.0 mi South 8.1 mph - N/A   Clear
5:10 AM 62.6 °F - 62.6 °F 100% 29.97 in 10.0 mi South 9.2 mph - N/A   Clear
5:30 AM 62.6 °F - 62.6 °F 100% 29.97 in 10.0 mi South 8.1 mph - N/A   Clear
5:50 AM 62.6 °F - 62.6 °F 100% 29.97 in 10.0 mi SSE 10.4 mph - N/A   Clear
6:10 AM 62.6 °F - 62.6 °F 100% 29.96 in 10.0 mi South 10.4 mph - N/A   Clear
6:30 AM 62.6 °F - 62.6 °F 100% 29.96 in 10.0 mi South 9.2 mph - N/A   Clear
6:50 AM 62.6 °F - 62.6 °F 100% 29.95 in 10.0 mi South 10.4 mph - N/A   Clear
7:10 AM 62.6 °F - 62.6 °F 100% 29.95 in 10.0 mi South 10.4 mph - N/A   Clear
7:30 AM 62.6 °F - 62.6 °F 100% 29.95 in 10.0 mi South 9.2 mph - N/A   Clear
7:50 AM 64.4 °F - 64.4 °F 100% 29.95 in 10.0 mi South 6.9 mph - N/A   Clear
8:10 AM 66.2 °F - 66.2 °F 100% 29.95 in 10.0 mi SSW 8.1 mph - N/A   Clear
8:30 AM 68.0 °F - 68.0 °F 100% 29.95 in 10.0 mi South 10.4 mph 16.1 mph N/A   Clear
8:50 AM 69.8 °F - 68.0 °F 94% 29.95 in 10.0 mi SSW 15.0 mph 20.7 mph N/A   Clear
9:10 AM 71.6 °F - 68.0 °F 88% 29.94 in 10.0 mi SSW 13.8 mph 17.3 mph N/A   Clear
9:30 AM 71.6 °F - 68.0 °F 88% 29.94 in 10.0 mi SSW 10.4 mph 18.4 mph N/A   Clear
9:50 AM 71.6 °F - 68.0 °F 88% 29.95 in 10.0 mi SSW 12.7 mph - N/A   Clear
10:10 AM 73.4 °F - 69.8 °F 88% 29.95 in 10.0 mi SSW 10.4 mph - N/A   Clear
10:30 AM 73.4 °F - 69.8 °F 88% 29.95 in 10.0 mi SSW 10.4 mph - N/A   Clear
10:50 AM 75.2 °F - 71.6 °F 89% 29.95 in 10.0 mi South 8.1 mph - N/A   Scattered Clouds
11:10 AM 75.2 °F - 71.6 °F 89% 29.95 in 10.0 mi SW 8.1 mph - N/A   Mostly Cloudy
11:30 AM 75.2 °F - 71.6 °F 89% 29.95 in 10.0 mi SSW 10.4 mph - N/A   Mostly Cloudy
11:50 AM 75.2 °F - 71.6 °F 89% 29.95 in 10.0 mi South 8.1 mph - N/A   Mostly Cloudy
12:10 PM 75.2 °F - 71.6 °F 89% 29.95 in 10.0 mi SSW 8.1 mph - N/A   Overcast
12:30 PM 77.0 °F - 71.6 °F 83% 29.95 in 10.0 mi South 9.2 mph - N/A   Mostly Cloudy
12:50 PM 77.0 °F - 71.6 °F 83% 29.94 in 10.0 mi South 9.2 mph - N/A   Mostly Cloudy
1:10 PM 80.6 °F 84.6 °F 71.6 °F 74% 29.94 in 10.0 mi SSW 9.2 mph - N/A   Scattered Clouds
1:30 PM 78.8 °F - 71.6 °F 78% 29.93 in 10.0 mi South 5.8 mph - N/A   Mostly Cloudy
1:50 PM 80.6 °F 85.4 °F 73.4 °F 79% 29.93 in 10.0 mi South 10.4 mph - N/A   Scattered Clouds
2:10 PM 80.6 °F 85.4 °F 73.4 °F 79% 29.93 in 10.0 mi SSW 9.2 mph 17.3 mph N/A   Partly Cloudy
2:30 PM 82.4 °F 88.2 °F 73.4 °F 74% 29.92 in 10.0 mi South 11.5 mph 16.1 mph N/A   Partly Cloudy
2:50 PM 80.6 °F 85.4 °F 73.4 °F 79% 29.91 in 10.0 mi South 13.8 mph 17.3 mph N/A   Scattered Clouds
3:10 PM 82.4 °F 88.2 °F 73.4 °F 74% 29.91 in 10.0 mi South 15.0 mph 20.7 mph N/A   Partly Cloudy
3:30 PM 80.6 °F 85.4 °F 73.4 °F 79% 29.90 in 10.0 mi South 13.8 mph 20.7 mph N/A   Partly Cloudy
3:50 PM 82.4 °F 88.2 °F 73.4 °F 74% 29.90 in 10.0 mi South 12.7 mph 19.6 mph N/A   Partly Cloudy
4:10 PM 82.4 °F 88.2 °F 73.4 °F 74% 29.90 in 10.0 mi SSW 15.0 mph - N/A   Partly Cloudy
4:30 PM 82.4 °F 88.2 °F 73.4 °F 74% 29.90 in 10.0 mi South 12.7 mph 19.6 mph N/A   Scattered Clouds
4:50 PM 82.4 °F 88.2 °F 73.4 °F 74% 29.90 in 10.0 mi SSW 12.7 mph 19.6 mph N/A   Partly Cloudy
5:10 PM 82.4 °F 88.2 °F 73.4 °F 74% 29.90 in 10.0 mi SSW 10.4 mph - N/A   Scattered Clouds
5:30 PM 82.4 °F 88.2 °F 73.4 °F 74% 29.90 in 10.0 mi SSW 10.4 mph - N/A   Mostly Cloudy
5:50 PM 80.6 °F 85.4 °F 73.4 °F 79% 29.89 in 10.0 mi SSW 9.2 mph - N/A   Mostly Cloudy
6:10 PM 80.6 °F 85.4 °F 73.4 °F 79% 29.89 in 10.0 mi SW 6.9 mph - N/A   Mostly Cloudy
6:30 PM 80.6 °F 85.4 °F 73.4 °F 79% 29.89 in 10.0 mi SSW 5.8 mph - N/A   Overcast
6:50 PM 80.6 °F 86.2 °F 75.2 °F 84% 29.89 in 10.0 mi SSW 5.8 mph - N/A   Overcast
7:10 PM 78.8 °F - 75.2 °F 89% 29.89 in 10.0 mi SSE 4.6 mph - N/A   Overcast
7:30 PM 78.8 °F - 75.2 °F 89% 29.89 in 10.0 mi SSE 6.9 mph - N/A   Overcast
7:50 PM 77.0 °F - 75.2 °F 94% 29.89 in 10.0 mi SSE 5.8 mph - N/A   Overcast
8:10 PM 75.2 °F - 75.2 °F 100% 29.89 in 10.0 mi SSE 6.9 mph - N/A   Scattered Clouds
8:30 PM 75.2 °F - 75.2 °F 100% 29.89 in 10.0 mi SSE 5.8 mph - N/A   Clear
8:50 PM 73.4 °F - 73.4 °F 100% 29.90 in 10.0 mi SSE 6.9 mph - N/A   Clear
9:10 PM 73.4 °F - 73.4 °F 100% 29.90 in 10.0 mi SSE 6.9 mph - N/A   Clear
9:30 PM 73.4 °F - 73.4 °F 100% 29.90 in 10.0 mi SSE 6.9 mph - N/A   Clear
9:50 PM 73.4 °F - 73.4 °F 100% 29.90 in 10.0 mi SSE 8.1 mph - N/A Rain Light Rain
10:10 PM 73.4 °F - 73.4 °F 100% 29.91 in 10.0 mi South 4.6 mph - N/A   Clear
10:30 PM 71.6 °F - 71.6 °F 100% 29.91 in 10.0 mi SSE 6.9 mph - N/A   Scattered Clouds
10:50 PM 71.6 °F - 71.6 °F 100% 29.91 in 10.0 mi South 6.9 mph - N/A   Scattered Clouds
11:10 PM 71.6 °F - 71.6 °F 100% 29.91 in 10.0 mi South 6.9 mph - N/A   Scattered Clouds
11:30 PM 71.6 °F - 71.6 °F 100% 29.90 in 10.0 mi South 6.9 mph - N/A   Scattered Clouds
11:50 PM 71.6 °F - 71.6 °F 100% 29.90 in 10.0 mi South 6.9 mph - N/A   Partly Cloudy